Regional Weather Roundup
Issued by NWS Lake Charles, LA

Home | Current Version | Previous Version | Text Only | Print | Product List | Glossary On
Versions: 1 2 3 4 5 6 7 8 9 10 11 12 13 14 15 16 17 18 19 20 21 22 23 24 25 26 27
000
ASUS44 KLCH 190410
RWRLCH
RWRLCH
REGIONAL WEATHER ROUNDUP
NATIONAL WEATHER SERVICE LAKE CHARLES LA
1100 PM CDT FRI APR 18 2014

Note: "fair" indicates few or no clouds below 12,000 feet with no
significant weather and/or obstructions to visibility.


ACROSS SOUTHEAST TEXAS

CITY           SKY/WX    TMP DP  RH WIND       PRES   REMARKS
BEAUMONT       PTCLDY    65  56  72 NE6       30.13S
BEAUMONT CITY    N/A     64  57  79 CALM      30.14F
ORANGE         PTCLDY    61  58  91 NW3       30.16S
JASPER         PTCLDY    57  55  92 CALM      30.18S
$$

ACROSS CENTRAL LOUISIANA

CITY           SKY/WX    TMP DP  RH WIND       PRES   REMARKS
LEESVILLE      CLEAR     60  56  86 N5        30.15S FOG
FULLERTON        N/A     62  56  80 CALM      30.13S
ALEXANDRIA INT PTCLDY    62  57  83 N6        30.14F
ESLER FIELD    PTCLDY    62  58  86 CALM      30.16S
DERIDDER         N/A     58  56  91 CALM      30.17S
OAKDALE        CLEAR     57  55  94 CALM      30.15S
OPELOUSAS        N/A     60  56  88 NE3       30.14S
$$

ACROSS SOUTHWEST AND SOUTH CENTRAL LOUISIANA

CITY           SKY/WX    TMP DP  RH WIND       PRES   REMARKS
SULPHUR        CLEAR     64  58  81 N5        30.14F
LAKE CHARLES   CLEAR     63  57  81 N6        30.13F
CHENNAULT INT  CLEAR     62  57  84 N3        30.15S
CAMERON PHI      N/A     64  59  82 N6        30.14S
DEQUINCY         N/A     57  55  93 NW3       30.15S
JENNINGS         N/A     63  58  86 N7        30.14S
LAFAYETTE      PTCLDY    64  58  80 N5        30.14S
NEW IBERIA     PTCLDY    63  58  83 NE5       30.14S
ABBEVILLE        N/A     67  65  94 N3        30.13S
PATTERSON      CLEAR     63  57  82 E7        30.17S
SALT POINT       N/A     66  61  84 CALM      30.12S
$$

SELECTED SITES ACROSS THE REGION

CITY           SKY/WX    TMP DP  RH WIND       PRES   REMARKS
HOUSTON BUSH   PTCLDY    64  54  69 NE8       30.13R
HOUSTON HOBBY  PTCLDY    64  55  72 S3        30.13R
GALVESTON      CLEAR     65  59  81 SE6       30.13S
COLLEGE STAT   CLEAR     64  54  69 NE3       30.14R
CONROE         CLEAR     56  54  93 CALM      30.15R
HUNTSVILLE     CLEAR     61  54  77 CALM      30.15R
LUFKIN         PTCLDY    64  54  69 E3        30.16S
SHREVEPORT     PTCLDY    60  53  77 CALM      30.17S
MONROE         CLEAR     57  54  89 CALM      30.19R
NATCHEZ MS     CLOUDY    57  55  94 CALM      30.16S
BATON ROUGE    CLEAR     61  57  87 CALM      30.16R
N.O. INTL ARPT PTCLDY    63  56  78 NE9       30.14R
SLIDELL        CLEAR     59  54  83 NE6       30.12R
$$

MARINE REPORTS

STATION/POSITION TIME  TEMP    WIND        PRES    VSBY  WAVE
                       AIR SEA DIR/SP/G                  HT/PER
                 (UTC) (F)     (DEG/KT/KT) (MB)    (MI)  (FT/S)
BUOY 30 S HIGH I 0400   67 67  270/  2/  2 1020.0F         1/ 8
SEA RIM ST PARK  0400   64     330/  3/  3 1020.7F
PORT ARTHUR      0400      67   40/  1/  3 1020.3F
SABINE PASS N    0400   67 66   50/  3/  4 1020.1F
TEXAS POINT      0400   67 67  360/  4/  4 1020.4F
CALCASIEU PASS   0400   66 67   30/  6/  6 1021.4R
LK CHARLES BEACH 0400   67 65              1021.3F
MARSH ISLAND     0300   68      20/  8/  9   N/A
FRESH WATER LOCK 0400   66 64  330/  3/  4 1020.1R
AMERADA PASS     0400   65 65   80/  4/  6 1020.2S
$$



USA.gov is the U.S. government's official web portal to all federal, state and local government web resources and services.